Flight Track Log - Related Links

Times and Time Zones

All times are in EDT time to prevent confusion due to time zone crossing. See the ANA214 flight status page for this flight to view local times or setup timezone preferences in your user account.

Time Position Orientation Groundspeed Altitude Reporting Facility
EDT Latitude Longitude Course Direction KTS MPH feet Rate Location/Type
Mon 08:21:34 PM 33.5060 130.5010 75° East 200 230 4,100  Level FlightAware ADS-B
Mon 08:22:00 PM 33.6704 130.8187 75° East  Level Estimated
Mon 08:22:01 PM 33.4870 130.5130 152° Southeast 200 230 4,100  Level FlightAware ADS-B
Mon 08:22:13 PM 33.4690 130.5300 142° Southeast 239 275 5,900 4,650 Climbing FlightAware ADS-B
Mon 08:22:41 PM 33.4540 130.5600 121° Southeast 247 284 7,200 2,123 Climbing FlightAware ADS-B
Mon 08:23:18 PM 33.4260 130.6100 124° Southeast 293 337 8,200 2,464 Climbing FlightAware ADS-B
Mon 08:23:37 PM 33.4030 130.6530 123° Southeast 307 353 9,500 2,667 Climbing FlightAware ADS-B
Mon 08:24:12 PM 33.3750 130.7050 123° Southeast 335 386 10,600 1,457 Climbing FlightAware ADS-B
Mon 08:24:47 PM 33.3440 130.7630 123° Southeast 378 435 11,200 900 Climbing FlightAware ADS-B
Mon 08:25:12 PM 33.3210 130.8090 121° Southeast 406 467 11,500 1,029 Climbing FlightAware ADS-B
Mon 08:25:22 PM 33.3150 130.8320 107° East 413 475 11,800 2,267 Climbing FlightAware ADS-B
Mon 08:25:57 PM 33.3250 130.9090 81° East 418 481 13,200 2,486 Climbing FlightAware ADS-B
Mon 08:26:32 PM 33.3450 130.9880 73° East 425 489 14,700 2,571 Climbing FlightAware ADS-B
Mon 08:27:07 PM 33.3640 131.0680 74° East 435 501 16,200 2,400 Climbing FlightAware ADS-B
Mon 08:27:42 PM 33.3840 131.1490 74° East 443 510 17,500 2,229 Climbing FlightAware ADS-B
Mon 08:28:17 PM 33.4070 131.2320 72° East 453 521 18,800 2,143 Climbing FlightAware ADS-B
Mon 08:28:52 PM 33.4310 131.3160 71° East 461 531 20,000 2,057 Climbing FlightAware ADS-B
Mon 08:29:27 PM 33.4540 131.4010 72° East 462 532 21,200 2,057 Climbing FlightAware ADS-B
Mon 08:30:02 PM 33.4780 131.4860 71° East 466 536 22,400 1,886 Climbing FlightAware ADS-B
Mon 08:30:37 PM 33.5020 131.5710 71° East 472 543 23,400 1,714 Climbing FlightAware ADS-B
Mon 08:31:12 PM 33.5250 131.6570 72° East 478 550 24,400 1,714 Climbing FlightAware ADS-B
Mon 08:31:47 PM 33.5510 131.7490 71° East 485 558 25,400 1,543 Climbing FlightAware ADS-B
Mon 08:32:22 PM 33.5750 131.8370 72° East 493 567 26,200 1,200 Climbing FlightAware ADS-B
Mon 08:32:57 PM 33.6000 131.9280 72° East 501 577 26,800 1,286 Climbing FlightAware ADS-B
Mon 08:33:32 PM 33.6250 132.0210 72° East 505 581 27,700 1,714 Climbing FlightAware ADS-B
Mon 08:34:07 PM 33.6510 132.1170 72° East 503 579 28,800 1,701 Climbing FlightAware ADS-B
Mon 08:34:39 PM 33.6720 132.1930 72° East 502 578 29,600 1,615 Climbing FlightAware ADS-B
Mon 08:35:25 PM 33.7080 132.3240 72° East 497 572 30,900 1,037 Climbing FlightAware ADS-B
Mon 08:36:00 PM 33.7310 132.4100 72° East 497 572 31,000 86 Climbing FlightAware ADS-B
Mon 08:36:35 PM 33.7500 132.5000 76° East 497 572 31,000  Level FlightAware ADS-B
Mon 08:37:10 PM 33.7510 132.6030 89° East 496 571 31,000  Level FlightAware ADS-B
Mon 08:37:45 PM 33.7490 132.7020 91° East 496 571 31,000  Level FlightAware ADS-B
Mon 08:38:20 PM 33.7460 132.7960 92° East 495 570 31,000  Level FlightAware ADS-B
Mon 08:38:54 PM 33.7410 132.8920 94° East 495 570 31,000  Level FlightAware ADS-B
Mon 08:39:30 PM 33.7360 132.9860 94° East 494 568 31,000  Level FlightAware ADS-B
Mon 08:40:05 PM 33.7320 133.0860 93° East 493 567 31,000  Level FlightAware ADS-B
Mon 08:40:40 PM 33.7280 133.1790 93° East 492 566 31,000  Level FlightAware ADS-B
Mon 08:41:14 PM 33.7240 133.2750 93° East 492 566 31,000  Level FlightAware ADS-B
Mon 08:41:49 PM 33.7190 133.3710 94° East 492 566 31,000  Level FlightAware ADS-B
Mon 08:42:24 PM 33.7150 133.4640 93° East 492 566 31,000  Level FlightAware ADS-B
Mon 08:42:58 PM 33.7130 133.5520 92° East 493 567 31,000  Level FlightAware ADS-B
Mon 08:43:38 PM 33.7120 133.6610 91° East 493 567 31,000  Level FlightAware ADS-B
Mon 08:44:07 PM 33.7100 133.7430 92° East 493 567 31,000  Level FlightAware ADS-B
Mon 08:44:41 PM 33.7090 133.8330 91° East 494 568 31,000  Level FlightAware ADS-B
Mon 08:45:22 PM 33.7070 133.9420 91° East 494 568 31,000  Level FlightAware ADS-B
Mon 08:45:53 PM 33.7060 134.0310 91° East 495 570 31,000 -324 Level FlightAware ADS-B
Mon 08:46:36 PM 33.7040 134.1460 91° East 487 560 30,600 -857 Descending FlightAware ADS-B
Mon 08:47:10 PM 33.7030 134.2370 91° East 482 555 29,900 -1,308 Descending FlightAware ADS-B
Mon 08:47:54 PM 33.7010 134.3530 91° East 483 556 28,900 -1,421 Descending FlightAware ADS-B
Mon 08:48:26 PM 33.6990 134.4410 92° East 484 557 28,100 -1,250 Descending FlightAware ADS-B
Mon 08:49:06 PM 33.6970 134.5430 91° East 484 557 27,400 -868 Descending FlightAware ADS-B
Mon 08:49:42 PM 33.7120 134.6470 80° East 488 562 27,000 -364 Descending FlightAware ADS-B
Mon 08:50:12 PM 33.7370 134.7250 69° East 493 567 27,000  Level FlightAware ADS-B
Mon 08:50:47 PM 33.7650 134.8150 69° East 495 570 27,000  Level FlightAware ADS-B
Mon 08:51:22 PM 33.7940 134.9050 69° East 495 570 27,000  Level FlightAware ADS-B
Mon 08:52:02 PM 33.8260 135.0080 69° East 495 570 27,000 -86 Level FlightAware ADS-B
Mon 08:52:32 PM 33.8510 135.0850 69° East 495 570 26,900 -646 Descending FlightAware ADS-B
Mon 08:53:07 PM 33.8790 135.1760 70° East 493 567 26,300 -1,114 Descending FlightAware ADS-B
Mon 08:53:42 PM 33.9060 135.2610 69° East 464 534 25,600 -1,200 Descending FlightAware ADS-B
Mon 08:54:22 PM 33.9350 135.3560 70° East 442 509 24,800 -1,629 Descending FlightAware ADS-B
Mon 08:54:52 PM 33.9560 135.4230 69° East 433 498 23,700 -2,215 Descending FlightAware ADS-B
Mon 08:55:27 PM 33.9810 135.5030 69° East 427 491 22,400 -2,143 Descending FlightAware ADS-B
Mon 08:56:02 PM 34.0040 135.5780 70° East 421 484 21,200 -2,000 Descending FlightAware ADS-B
Mon 08:56:42 PM 34.0310 135.6660 70° East 410 472 19,900 -1,971 Descending FlightAware ADS-B
Mon 08:57:12 PM 34.0510 135.7290 69° East 402 463 18,900 -1,754 Descending FlightAware ADS-B
Mon 08:57:47 PM 34.0730 135.8010 70° East 395 455 18,000 -1,543 Descending FlightAware ADS-B
Mon 08:58:22 PM 34.0950 135.8740 70° East 388 447 17,100 -1,457 Descending FlightAware ADS-B
Mon 08:58:57 PM 34.1170 135.9450 69° East 385 443 16,300 -1,457 Descending FlightAware ADS-B
Mon 08:59:32 PM 34.1370 136.0120 70° East 378 435 15,400 -1,437 Descending FlightAware ADS-B
Mon 09:00:08 PM 34.1600 136.0870 70° East 378 435 14,600 -1,268 Descending FlightAware ADS-B
Mon 09:00:43 PM 34.1800 136.1530 70° East 374 430 13,900 -1,217 Descending FlightAware ADS-B
Mon 09:01:17 PM 34.2100 136.2100 58° Northeast 351 404 13,200 -1,043 Descending FlightAware ADS-B
Mon 09:01:52 PM 34.2570 136.2530 37° Northeast 347 399 12,700 -831 Descending FlightAware ADS-B
Mon 09:02:22 PM 34.2920 136.2890 40° Northeast 336 387 12,300 -738 Descending FlightAware ADS-B
Mon 09:02:57 PM 34.3200 136.3430 58° Northeast 316 364 11,900 -686 Descending FlightAware ADS-B
Mon 09:03:32 PM 34.3470 136.3960 58° Northeast 306 352 11,500 -960 Descending FlightAware ADS-B
Mon 09:03:47 PM 34.3540 136.4210 71° East 304 350 11,100 -1,320 Descending FlightAware ADS-B
Mon 09:04:22 PM 34.3610 136.4800 82° East 295 339 10,400 -1,108 Descending FlightAware ADS-B
Mon 09:04:52 PM 34.3670 136.5270 81° East 286 329 9,900 -900 Descending FlightAware ADS-B
Mon 09:05:02 PM 34.3690 136.5430 81° East 280 322 9,800 -400 Descending FlightAware ADS-B
Mon 09:05:22 PM 34.3720 136.5730 83° East 267 307 9,700 -667 Descending FlightAware ADS-B
Mon 09:05:47 PM 34.3760 136.6040 81° East 263 303 9,300 -1,200 Descending FlightAware ADS-B
Mon 09:06:07 PM 34.3800 136.6390 82° East 257 296 8,800 -1,400 Descending FlightAware ADS-B
Mon 09:06:17 PM 34.3820 136.6530 80° East 254 292 8,600 -1,371 Descending FlightAware ADS-B
Mon 09:06:42 PM 34.3850 136.6880 84° East 251 289 8,000 -1,350 Descending FlightAware ADS-B
Mon 09:06:57 PM 34.3870 136.7090 83° East 250 288 7,700 -1,235 Descending FlightAware ADS-B
Mon 09:07:16 PM 34.3900 136.7350 82° East 246 283 7,300 -1,029 Descending FlightAware ADS-B
Mon 09:07:32 PM 34.3920 136.7550 83° East 238 274 7,100 -1,029 Descending FlightAware ADS-B
Mon 09:07:51 PM 34.3950 136.7810 82° East 234 269 6,700 -1,400 Descending FlightAware ADS-B
Mon 09:08:02 PM 34.3970 136.7950 80° East 234 269 6,400 -1,297 Descending FlightAware ADS-B
Mon 09:08:28 PM 34.4000 136.8270 84° East 230 265 5,900 -1,371 Descending FlightAware ADS-B
Mon 09:08:37 PM 34.4030 136.8400 74° East 228 262 5,600 -1,333 Descending FlightAware ADS-B
Mon 09:08:46 PM 34.4070 136.8500 64° Northeast 225 259 5,500 -600 Descending FlightAware ADS-B
Mon 09:09:07 PM 34.4170 136.8720 61° Northeast 212 244 5,300 -686 Descending FlightAware ADS-B
Mon 09:09:21 PM 34.4250 136.8880 59° Northeast 204 235 5,100 -900 Descending FlightAware ADS-B
Mon 09:09:27 PM 34.4280 136.8920 48° Northeast 211 243 5,000 -1,125 Descending FlightAware ADS-B
Mon 09:09:37 PM 34.4380 136.8960 18° North 214 246 4,800 -857 Descending FlightAware ADS-B
Mon 09:10:02 PM 34.4610 136.8990 North 208 239 4,500 -533 Descending FlightAware ADS-B
Mon 09:10:22 PM 34.4810 136.8970 355° North 194 223 4,400 -514 Descending FlightAware ADS-B
Mon 09:10:37 PM 34.4930 136.8930 345° North 182 209 4,200 -706 Descending FlightAware ADS-B
Mon 09:10:56 PM 34.5110 136.8880 347° North 186 214 4,000 -533 Descending FlightAware ADS-B
Mon 09:11:22 PM 34.5320 136.8830 349° North 185 213 3,800 -500 Descending FlightAware ADS-B
Mon 09:11:32 PM 34.5400 136.8810 348° North 184 212 3,700 -375 Descending FlightAware ADS-B
Mon 09:11:54 PM 34.5560 136.8780 351° North 185 213 3,600 -343 Descending FlightAware ADS-B
Mon 09:12:07 PM 34.5690 136.8750 349° North 178 205 3,500 -158 Descending FlightAware ADS-B
Mon 09:12:32 PM 34.5910 136.8690 347° North 179 206 3,500  Level FlightAware ADS-B
Mon 09:12:52 PM 34.6080 136.8650 349° North 179 206 3,500  Level FlightAware ADS-B
Mon 09:13:12 PM 34.6240 136.8620 351° North 180 207 3,500  Level FlightAware ADS-B
Mon 09:13:27 PM 34.6370 136.8580 346° North 179 206 3,500  Level FlightAware ADS-B
Mon 09:13:47 PM 34.6550 136.8540 350° North 180 207 3,500 -450 Level FlightAware ADS-B
Mon 09:14:07 PM 34.6720 136.8500 349° North 185 213 3,200 -857 Descending FlightAware ADS-B
Mon 09:14:22 PM 34.6860 136.8470 350° North 186 214 3,000 -900 Descending FlightAware ADS-B
Mon 09:14:47 PM 34.7070 136.8420 349° North 180 207 2,600 -955 Descending FlightAware ADS-B
Mon 09:15:06 PM 34.7230 136.8380 348° North 184 212 2,300 -923 Descending FlightAware ADS-B
Mon 09:15:26 PM 34.7390 136.8340 348° North 169 194 2,000 -878 Descending FlightAware ADS-B
Mon 09:15:47 PM 34.7550 136.8300 348° North 168 193 1,700 -833 Descending FlightAware ADS-B
Mon 09:16:02 PM 34.7670 136.8270 348° North 165 190 1,500 -857 Descending FlightAware ADS-B
Mon 09:16:22 PM 34.7820 136.8240 351° North 150 173 1,200 -882 Descending FlightAware ADS-B
Mon 09:16:36 PM 34.7910 136.8220 350° North 151 174 1,000 -800 Descending FlightAware ADS-B
Mon 09:16:52 PM 34.8010 136.8190 346° North 147 169 800 -900 Descending FlightAware ADS-B
Mon 09:17:16 PM 34.8190 136.8150 350° North 136 157 400 -429 Descending FlightAware ADS-B
Mon 09:17:48 PM 34.8350 136.8110 348° North 135 155 400  Level FlightAware ADS-B
Mon 09:20:00 PM 34.8583 136.8053 349° North  Level Estimated
Mon 09:21:00 PM 34.8583 136.8053 331° Northwest  Level Estimated
Mon 09:22:00 PM 34.8583 136.8053 331° Northwest  Level Estimated
Mon 09:23:00 PM 34.8583 136.8053 331° Northwest  Level Estimated

Login

Don't have an account? Register now (free) for customized features, flight alerts, and more!